M I D A S
Marine Information and Data Acquisition System
Tripno 1530 of the Zeeleeuw from 2008-07-31 07:58:34 to 2008-07-31 15:05:41
Back to CruiseResearch ActivitiesStationsMapUnderway DataData graphs

EquipmentUnitsComments
TimeDGPSUTC
LatitudeDGPSDM.mWGS84
LongitudeDGPSDM.mWGS84
SpeedMeteo Stationm/sRelative wind speed
DirectionMeteo StationdegRelative wind direction
TemperatureMeteo Stationdeg CelciusAir temperature
PressureMeteo StationPaAtmospheric pressure
HumidityMeteo Station%Relative humidity
Missing or incorrect values are displayed as -999
Metereological data collected by the RV Zeeleeuw from 2008-07-31 07:56:53 to 2008-07-31 15:08:53
                                                                                    Next 1000 lines
Time Latitude Longitude Speed Direction Temperature Pressure Humidity
2008-07-31 07:57:03 51°13.624 2°56.044 -999 -999 -999 -999 -999
2008-07-31 07:57:08 51°13.625 2°56.042 -999 -999 -999 -999 -999
2008-07-31 07:57:13 51°13.626 2°56.039 -999 -999 -999 -999 -999
2008-07-31 07:57:18 51°13.627 2°56.035 -999 -999 -999 -999 -999
2008-07-31 07:57:23 51°13.628 2°56.031 -999 -999 -999 -999 -999
2008-07-31 07:57:28 51°13.63 2°56.026 -999 -999 -999 -999 -999
2008-07-31 07:57:33 51°13.632 2°56.021 -999 -999 -999 -999 -999
2008-07-31 07:57:38 51°13.634 2°56.015 -999 -999 -999 -999 -999
2008-07-31 07:57:44 51°13.636 2°56.008 -999 -999 -999 -999 -999
2008-07-31 07:57:49 51°13.638 2°56.001 -999 -999 -999 -999 -999
2008-07-31 07:57:53 51°13.64 2°55.996 -999 -999 -999 -999 -999
2008-07-31 07:57:58 51°13.642 2°55.989 -999 -999 -999 -999 -999
2008-07-31 07:58:03 51°13.644 2°55.982 -999 -999 -999 -999 -999
2008-07-31 07:58:09 51°13.647 2°55.974 -999 -999 -999 -999 -999
2008-07-31 07:58:13 51°13.649 2°55.968 -999 -999 -999 -999 -999
2008-07-31 07:58:18 51°13.65 2°55.96 -999 -999 -999 -999 -999
2008-07-31 07:58:23 51°13.652 2°55.953 -999 -999 -999 -999 -999
2008-07-31 07:58:28 51°13.654 2°55.945 -999 -999 -999 -999 -999
2008-07-31 07:58:34 51°13.657 2°55.935 -999 -999 -999 -999 -999
2008-07-31 07:58:38 51°13.659 2°55.929 -999 -999 -999 -999 -999
2008-07-31 07:58:44 51°13.661 2°55.92 -999 -999 -999 -999 -999
2008-07-31 07:58:49 51°13.664 2°55.912 -999 -999 -999 -999 -999
2008-07-31 07:58:54 51°13.666 2°55.904 -999 -999 -999 -999 -999
2008-07-31 07:58:59 51°13.668 2°55.897 -999 -999 -999 -999 -999
2008-07-31 07:59:03 51°13.67 2°55.891 -999 -999 -999 -999 -999
2008-07-31 07:59:08 51°13.673 2°55.884 -999 -999 -999 -999 -999
2008-07-31 07:59:14 51°13.675 2°55.876 -999 -999 -999 -999 -999
2008-07-31 07:59:18 51°13.677 2°55.871 -999 -999 -999 -999 -999
2008-07-31 07:59:23 51°13.68 2°55.864 -999 -999 -999 -999 -999
2008-07-31 07:59:28 51°13.683 2°55.857 -999 -999 -999 -999 -999
2008-07-31 07:59:34 51°13.686 2°55.848 -999 -999 -999 -999 -999
2008-07-31 07:59:39 51°13.688 2°55.842 -999 -999 -999 -999 -999
2008-07-31 07:59:43 51°13.69 2°55.836 -999 -999 -999 -999 -999
2008-07-31 07:59:48 51°13.693 2°55.83 -999 -999 -999 -999 -999
2008-07-31 07:59:54 51°13.696 2°55.822 -999 -999 -999 -999 -999
2008-07-31 07:59:59 51°13.698 2°55.816 -999 -999 -999 -999 -999
2008-07-31 08:00:04 51°13.7 2°55.809 -999 -999 -999 -999 -999
2008-07-31 08:00:09 51°13.702 2°55.804 -999 -999 -999 -999 -999
2008-07-31 08:00:13 51°13.704 2°55.799 -999 -999 -999 -999 -999
2008-07-31 08:00:18 51°13.706 2°55.793 -999 -999 -999 -999 -999
2008-07-31 08:00:24 51°13.708 2°55.786 -999 -999 -999 -999 -999
2008-07-31 08:00:29 51°13.709 2°55.78 -999 -999 -999 -999 -999
2008-07-31 08:00:33 51°13.711 2°55.776 -999 -999 -999 -999 -999
2008-07-31 08:00:38 51°13.712 2°55.77 -999 -999 -999 -999 -999
2008-07-31 08:00:44 51°13.714 2°55.764 -999 -999 -999 -999 -999
2008-07-31 08:00:49 51°13.716 2°55.759 -999 -999 -999 -999 -999
2008-07-31 08:00:53 51°13.717 2°55.755 -999 -999 -999 -999 -999
2008-07-31 08:00:58 51°13.718 2°55.751 -999 -999 -999 -999 -999
2008-07-31 08:01:03 51°13.719 2°55.746 -999 -999 -999 -999 -999
2008-07-31 08:01:08 51°13.72 2°55.741 -999 -999 -999 -999 -999
2008-07-31 08:01:13 51°13.721 2°55.737 -999 -999 -999 -999 -999
2008-07-31 08:01:18 51°13.722 2°55.732 -999 -999 -999 -999 -999
2008-07-31 08:01:23 51°13.722 2°55.728 -999 -999 -999 -999 -999
2008-07-31 08:01:28 51°13.723 2°55.724 -999 -999 -999 -999 -999
2008-07-31 08:01:33 51°13.723 2°55.72 -999 -999 -999 -999 -999
2008-07-31 08:01:38 51°13.724 2°55.716 -999 -999 -999 -999 -999
2008-07-31 08:01:43 51°13.724 2°55.712 -999 -999 -999 -999 -999
2008-07-31 08:01:48 51°13.724 2°55.709 -999 -999 -999 -999 -999
2008-07-31 08:01:53 51°13.724 2°55.706 -999 -999 -999 -999 -999
2008-07-31 08:01:59 51°13.725 2°55.702 -999 -999 -999 -999 -999
2008-07-31 08:02:04 51°13.725 2°55.7 -999 -999 -999 -999 -999
2008-07-31 08:02:09 51°13.725 2°55.698 -999 -999 -999 -999 -999
2008-07-31 08:02:14 51°13.725 2°55.697 -999 -999 -999 -999 -999
2008-07-31 08:02:19 51°13.725 2°55.695 -999 -999 -999 -999 -999
2008-07-31 08:02:24 51°13.725 2°55.694 -999 -999 -999 -999 -999
2008-07-31 08:02:28 51°13.725 2°55.693 -999 -999 -999 -999 -999
2008-07-31 08:02:33 51°13.726 2°55.692 -999 -999 -999 -999 -999
2008-07-31 08:02:38 51°13.726 2°55.692 -999 -999 -999 -999 -999
2008-07-31 08:02:43 51°13.726 2°55.691 -999 -999 -999 -999 -999
2008-07-31 08:02:48 51°13.726 2°55.691 -999 -999 -999 -999 -999
2008-07-31 08:02:53 51°13.726 2°55.691 -999 -999 -999 -999 -999
2008-07-31 08:02:58 51°13.727 2°55.691 -999 -999 -999 -999 -999
2008-07-31 08:03:03 51°13.727 2°55.692 -999 -999 -999 -999 -999
2008-07-31 08:03:08 51°13.728 2°55.692 -999 -999 -999 -999 -999
2008-07-31 08:03:14 51°13.729 2°55.693 -999 -999 -999 -999 -999
2008-07-31 08:03:19 51°13.729 2°55.693 -999 -999 -999 -999 -999
2008-07-31 08:03:23 51°13.73 2°55.694 -999 -999 -999 -999 -999
2008-07-31 08:03:29 51°13.731 2°55.694 -999 -999 -999 -999 -999
2008-07-31 08:03:34 51°13.731 2°55.694 -999 -999 -999 -999 -999
2008-07-31 08:03:39 51°13.732 2°55.694 -999 -999 -999 -999 -999
2008-07-31 08:03:43 51°13.732 2°55.694 -999 -999 -999 -999 -999
2008-07-31 08:03:48 51°13.733 2°55.694 -999 -999 -999 -999 -999
2008-07-31 08:03:53 51°13.733 2°55.694 -999 -999 -999 -999 -999
2008-07-31 08:03:59 51°13.733 2°55.694 -999 -999 -999 -999 -999
2008-07-31 08:04:04 51°13.734 2°55.694 -999 -999 -999 -999 -999
2008-07-31 08:04:08 51°13.734 2°55.693 -999 -999 -999 -999 -999
2008-07-31 08:04:13 51°13.734 2°55.693 -999 -999 -999 -999 -999
2008-07-31 08:04:18 51°13.734 2°55.692 -999 -999 -999 -999 -999
2008-07-31 08:04:23 51°13.734 2°55.692 -999 -999 -999 -999 -999
2008-07-31 08:04:28 51°13.734 2°55.691 -999 -999 -999 -999 -999
2008-07-31 08:04:33 51°13.734 2°55.69 -999 -999 -999 -999 -999
2008-07-31 08:04:38 51°13.734 2°55.69 -999 -999 -999 -999 -999
2008-07-31 08:04:44 51°13.734 2°55.689 -999 -999 -999 -999 -999
2008-07-31 08:04:48 51°13.734 2°55.689 -999 -999 -999 -999 -999
2008-07-31 08:04:53 51°13.733 2°55.688 -999 -999 -999 -999 -999
2008-07-31 08:04:58 51°13.733 2°55.687 -999 -999 -999 -999 -999
2008-07-31 08:05:03 51°13.733 2°55.687 -999 -999 -999 -999 -999
2008-07-31 08:05:08 51°13.733 2°55.686 -999 -999 -999 -999 -999
2008-07-31 08:05:14 51°13.733 2°55.686 -999 -999 -999 -999 -999
2008-07-31 08:05:19 51°13.733 2°55.685 -999 -999 -999 -999 -999
2008-07-31 08:05:23 51°13.733 2°55.685 -999 -999 -999 -999 -999
2008-07-31 08:05:29 51°13.733 2°55.684 -999 -999 -999 -999 -999
2008-07-31 08:05:34 51°13.733 2°55.684 -999 -999 -999 -999 -999
2008-07-31 08:05:38 51°13.733 2°55.684 -999 -999 -999 -999 -999
2008-07-31 08:05:43 51°13.733 2°55.683 -999 -999 -999 -999 -999
2008-07-31 08:05:49 51°13.733 2°55.683 -999 -999 -999 -999 -999
2008-07-31 08:05:53 51°13.733 2°55.683 -999 -999 -999 -999 -999
2008-07-31 08:05:58 51°13.732 2°55.682 -999 -999 -999 -999 -999
2008-07-31 08:06:03 51°13.732 2°55.682 -999 -999 -999 -999 -999
2008-07-31 08:06:08 51°13.732 2°55.681 -999 -999 -999 -999 -999
2008-07-31 08:06:13 51°13.732 2°55.681 -999 -999 -999 -999 -999
2008-07-31 08:06:18 51°13.732 2°55.681 -999 -999 -999 -999 -999
2008-07-31 08:06:23 51°13.732 2°55.681 -999 -999 -999 -999 -999
2008-07-31 08:06:28 51°13.732 2°55.68 -999 -999 -999 -999 -999
2008-07-31 08:06:34 51°13.732 2°55.68 -999 -999 -999 -999 -999
2008-07-31 08:06:39 51°13.732 2°55.68 -999 -999 -999 -999 -999
2008-07-31 08:06:43 51°13.732 2°55.679 -999 -999 -999 -999 -999
2008-07-31 08:06:48 51°13.732 2°55.679 -999 -999 -999 -999 -999
2008-07-31 08:06:53 51°13.733 2°55.679 -999 -999 -999 -999 -999
2008-07-31 08:06:59 51°13.733 2°55.678 -999 -999 -999 -999 -999
2008-07-31 08:07:03 51°13.734 2°55.678 -999 -999 -999 -999 -999
2008-07-31 08:07:08 51°13.737 2°55.677 -999 -999 -999 -999 -999
2008-07-31 08:07:13 51°13.74 2°55.676 -999 -999 -999 -999 -999
2008-07-31 08:07:18 51°13.745 2°55.675 -999 -999 -999 -999 -999
2008-07-31 08:07:24 51°13.752 2°55.673 -999 -999 -999 -999 -999
2008-07-31 08:07:29 51°13.758 2°55.671 -999 -999 -999 -999 -999
2008-07-31 08:07:34 51°13.765 2°55.668 -999 -999 -999 -999 -999
2008-07-31 08:07:39 51°13.773 2°55.665 -999 -999 -999 -999 -999
2008-07-31 08:07:44 51°13.78 2°55.661 -999 -999 -999 -999 -999
2008-07-31 08:07:49 51°13.789 2°55.656 -999 -999 -999 -999 -999
2008-07-31 08:07:54 51°13.797 2°55.651 -999 -999 -999 -999 -999
2008-07-31 08:07:58 51°13.804 2°55.646 -999 -999 -999 -999 -999
2008-07-31 08:08:03 51°13.813 2°55.64 -999 -999 -999 -999 -999
2008-07-31 08:08:08 51°13.822 2°55.634 -999 -999 -999 -999 -999
2008-07-31 08:08:13 51°13.832 2°55.626 -999 -999 -999 -999 -999
2008-07-31 08:08:18 51°13.841 2°55.62 -999 -999 -999 -999 -999
2008-07-31 08:08:23 51°13.85 2°55.613 -999 -999 -999 -999 -999
2008-07-31 08:08:28 51°13.858 2°55.606 -999 -999 -999 -999 -999
2008-07-31 08:08:33 51°13.866 2°55.6 -999 -999 -999 -999 -999
2008-07-31 08:08:38 51°13.874 2°55.594 -999 -999 -999 -999 -999
2008-07-31 08:08:43 51°13.882 2°55.588 -999 -999 -999 -999 -999
2008-07-31 08:08:48 51°13.89 2°55.582 -999 -999 -999 -999 -999
2008-07-31 08:08:53 51°13.897 2°55.576 -999 -999 -999 -999 -999
2008-07-31 08:08:58 51°13.905 2°55.57 -999 -999 -999 -999 -999
2008-07-31 08:09:03 51°13.912 2°55.565 -999 -999 -999 -999 -999
2008-07-31 08:09:08 51°13.92 2°55.559 -999 -999 -999 -999 -999
2008-07-31 08:09:13 51°13.927 2°55.553 -999 -999 -999 -999 -999
2008-07-31 08:09:18 51°13.935 2°55.548 -999 -999 -999 -999 -999
2008-07-31 08:09:23 51°13.942 2°55.542 -999 -999 -999 -999 -999
2008-07-31 08:09:28 51°13.95 2°55.535 -999 -999 -999 -999 -999
2008-07-31 08:09:33 51°13.958 2°55.529 -999 -999 -999 -999 -999
2008-07-31 08:09:38 51°13.966 2°55.523 -999 -999 -999 -999 -999
2008-07-31 08:09:44 51°13.975 2°55.516 -999 -999 -999 -999 -999
2008-07-31 08:09:48 51°13.982 2°55.511 -999 -999 -999 -999 -999
2008-07-31 08:09:53 51°13.989 2°55.505 -999 -999 -999 -999 -999
2008-07-31 08:09:58 51°13.997 2°55.498 -999 -999 -999 -999 -999
2008-07-31 08:10:03 51°14.005 2°55.492 -999 -999 -999 -999 -999
2008-07-31 08:10:08 51°14.013 2°55.485 -999 -999 -999 -999 -999
2008-07-31 08:10:13 51°14.022 2°55.479 -999 -999 -999 -999 -999
2008-07-31 08:10:18 51°14.03 2°55.473 -999 -999 -999 -999 -999
2008-07-31 08:10:23 51°14.038 2°55.467 -999 -999 -999 -999 -999
2008-07-31 08:10:28 51°14.046 2°55.461 -999 -999 -999 -999 -999
2008-07-31 08:10:33 51°14.055 2°55.455 -999 -999 -999 -999 -999
2008-07-31 08:10:38 51°14.063 2°55.449 -999 -999 -999 -999 -999
2008-07-31 08:10:43 51°14.072 2°55.443 -999 -999 -999 -999 -999
2008-07-31 08:10:48 51°14.08 2°55.437 -999 -999 -999 -999 -999
2008-07-31 08:10:53 51°14.088 2°55.43 -999 -999 -999 -999 -999
2008-07-31 08:10:58 51°14.097 2°55.424 -999 -999 -999 -999 -999
2008-07-31 08:11:03 51°14.105 2°55.418 -999 -999 -999 -999 -999
2008-07-31 08:11:08 51°14.114 2°55.412 -999 -999 -999 -999 -999
2008-07-31 08:11:13 51°14.122 2°55.405 -999 -999 -999 -999 -999
2008-07-31 08:11:18 51°14.13 2°55.399 -999 -999 -999 -999 -999
2008-07-31 08:11:24 51°14.14 2°55.391 -999 -999 -999 -999 -999
2008-07-31 08:11:28 51°14.146 2°55.385 -999 -999 -999 -999 -999
2008-07-31 08:11:33 51°14.154 2°55.377 -999 -999 -999 -999 -999
2008-07-31 08:11:38 51°14.162 2°55.37 -999 -999 -999 -999 -999
2008-07-31 08:11:44 51°14.172 2°55.361 -999 -999 -999 -999 -999
2008-07-31 08:11:48 51°14.178 2°55.354 -999 -999 -999 -999 -999
2008-07-31 08:11:53 51°14.185 2°55.346 -999 -999 -999 -999 -999
2008-07-31 08:11:58 51°14.193 2°55.338 -999 -999 -999 -999 -999
2008-07-31 08:12:03 51°14.2 2°55.329 -999 -999 -999 -999 -999
2008-07-31 08:12:08 51°14.208 2°55.32 -999 -999 -999 -999 -999
2008-07-31 08:12:13 51°14.215 2°55.311 -999 -999 -999 -999 -999
2008-07-31 08:12:18 51°14.223 2°55.302 -999 -999 -999 -999 -999
2008-07-31 08:12:23 51°14.23 2°55.292 -999 -999 -999 -999 -999
2008-07-31 08:12:28 51°14.237 2°55.283 -999 -999 -999 -999 -999
2008-07-31 08:12:33 51°14.244 2°55.273 -999 -999 -999 -999 -999
2008-07-31 08:12:39 51°14.253 2°55.261 -999 -999 -999 -999 -999
2008-07-31 08:12:43 51°14.258 2°55.254 -999 -999 -999 -999 -999
2008-07-31 08:12:49 51°14.267 2°55.242 -999 -999 -999 -999 -999
2008-07-31 08:12:54 51°14.274 2°55.231 -999 -999 -999 -999 -999
2008-07-31 08:12:59 51°14.28 2°55.221 -999 -999 -999 -999 -999
2008-07-31 08:13:04 51°14.287 2°55.211 -999 -999 -999 -999 -999
2008-07-31 08:13:08 51°14.292 2°55.202 -999 -999 -999 -999 -999
2008-07-31 08:13:13 51°14.299 2°55.191 -999 -999 -999 -999 -999
2008-07-31 08:13:18 51°14.305 2°55.18 -999 -999 -999 -999 -999
2008-07-31 08:13:23 51°14.311 2°55.169 -999 -999 -999 -999 -999
2008-07-31 08:13:28 51°14.317 2°55.158 -999 -999 -999 -999 -999
2008-07-31 08:13:33 51°14.324 2°55.146 -999 -999 -999 -999 -999
2008-07-31 08:13:38 51°14.329 2°55.134 -999 -999 -999 -999 -999
2008-07-31 08:13:43 51°14.336 2°55.122 -999 -999 -999 -999 -999
2008-07-31 08:13:48 51°14.342 2°55.11 -999 -999 -999 -999 -999
2008-07-31 08:13:53 51°14.348 2°55.096 -999 -999 -999 -999 -999
2008-07-31 08:13:58 51°14.354 2°55.083 -999 -999 -999 -999 -999
2008-07-31 08:14:03 51°14.36 2°55.068 -999 -999 -999 -999 -999
2008-07-31 08:14:08 51°14.367 2°55.053 -999 -999 -999 -999 -999
2008-07-31 08:14:13 51°14.373 2°55.038 -999 -999 -999 -999 -999
2008-07-31 08:14:18 51°14.38 2°55.022 -999 -999 -999 -999 -999
2008-07-31 08:14:23 51°14.388 2°55.006 -999 -999 -999 -999 -999
2008-07-31 08:14:29 51°14.397 2°54.986 -999 -999 -999 -999 -999
2008-07-31 08:14:33 51°14.404 2°54.973 -999 -999 -999 -999 -999
2008-07-31 08:14:38 51°14.413 2°54.956 -999 -999 -999 -999 -999
2008-07-31 08:14:43 51°14.423 2°54.94 -999 -999 -999 -999 -999
2008-07-31 08:14:48 51°14.434 2°54.924 -999 -999 -999 -999 -999
2008-07-31 08:14:53 51°14.445 2°54.909 -999 -999 -999 -999 -999
2008-07-31 08:14:58 51°14.457 2°54.894 -999 -999 -999 -999 -999
2008-07-31 08:15:03 51°14.47 2°54.881 -999 -999 -999 -999 -999
2008-07-31 08:15:08 51°14.483 2°54.866 -999 -999 -999 -999 -999
2008-07-31 08:15:13 51°14.496 2°54.853 -999 -999 -999 -999 -999
2008-07-31 08:15:18 51°14.51 2°54.839 -999 -999 -999 -999 -999
2008-07-31 08:15:23 51°14.523 2°54.826 -999 -999 -999 -999 -999
2008-07-31 08:15:28 51°14.538 2°54.813 -999 -999 -999 -999 -999
2008-07-31 08:15:33 51°14.552 2°54.8 -999 -999 -999 -999 -999
2008-07-31 08:15:38 51°14.566 2°54.787 -999 -999 -999 -999 -999
2008-07-31 08:15:43 51°14.581 2°54.774 -999 -999 -999 -999 -999
2008-07-31 08:15:48 51°14.595 2°54.762 -999 -999 -999 -999 -999
2008-07-31 08:15:53 51°14.61 2°54.75 -999 -999 -999 -999 -999
2008-07-31 08:15:58 51°14.625 2°54.738 -999 -999 -999 -999 -999
2008-07-31 08:16:03 51°14.64 2°54.728 -999 -999 -999 -999 -999
2008-07-31 08:16:08 51°14.655 2°54.718 -999 -999 -999 -999 -999
2008-07-31 08:16:13 51°14.671 2°54.709 -999 -999 -999 -999 -999
2008-07-31 08:16:18 51°14.686 2°54.7 -999 -999 -999 -999 -999
2008-07-31 08:16:23 51°14.702 2°54.692 -999 -999 -999 -999 -999
2008-07-31 08:16:28 51°14.718 2°54.685 -999 -999 -999 -999 -999
2008-07-31 08:16:33 51°14.733 2°54.677 -999 -999 -999 -999 -999
2008-07-31 08:16:38 51°14.749 2°54.669 -999 -999 -999 -999 -999
2008-07-31 08:16:43 51°14.765 2°54.66 -999 -999 -999 -999 -999
2008-07-31 08:16:49 51°14.783 2°54.65 -999 -999 -999 -999 -999
2008-07-31 08:16:53 51°14.796 2°54.642 -999 -999 -999 -999 -999
2008-07-31 08:16:58 51°14.811 2°54.634 -999 -999 -999 -999 -999
2008-07-31 08:17:03 51°14.827 2°54.626 -999 -999 -999 -999 -999
2008-07-31 08:17:08 51°14.843 2°54.618 4 348 -999 -999 -999
2008-07-31 08:17:13 51°14.859 2°54.611 5 350 -999 -999 -999
2008-07-31 08:17:18 51°14.875 2°54.605 4.4 352 -999 -999 -999
2008-07-31 08:17:22 51°14.888 2°54.6 4.9 351 -999 -999 -999
2008-07-31 08:17:27 51°14.904 2°54.595 5.3 350 24.2 -999 58
2008-07-31 08:17:33 51°14.923 2°54.589 4.9 352 24.2 -999 58
2008-07-31 08:17:37 51°14.936 2°54.585 4.4 352 24.3 -999 69
2008-07-31 08:17:42 51°14.952 2°54.58 3.8 355 24.3 -999 69
2008-07-31 08:17:47 51°14.968 2°54.574 3.9 351 24.3 101400 69
2008-07-31 08:17:52 51°14.983 2°54.569 4.2 349 24.3 101400 69
2008-07-31 08:17:57 51°14.999 2°54.563 4.4 349 24.2 101400 69
2008-07-31 08:18:01 51°15.012 2°54.559 4 347 24.2 101400 69
2008-07-31 08:18:06 51°15.028 2°54.553 3.8 348 24.2 101400 70
2008-07-31 08:18:11 51°15.043 2°54.547 4.4 347 24.2 101400 70
2008-07-31 08:18:16 51°15.059 2°54.541 4.6 346 24.2 101400 70
2008-07-31 08:18:21 51°15.075 2°54.536 4.6 344 24.2 101400 70
2008-07-31 08:18:25 51°15.087 2°54.531 4.2 345 24.2 101400 70
2008-07-31 08:18:30 51°15.103 2°54.525 5 344 24.2 101400 70
2008-07-31 08:18:35 51°15.119 2°54.52 5.2 344 24.2 101410 71
2008-07-31 08:18:40 51°15.135 2°54.514 4.6 345 24.2 101410 71
2008-07-31 08:18:45 51°15.151 2°54.508 4.9 345 24.2 101400 72
2008-07-31 08:18:50 51°15.166 2°54.503 5 346 24.2 101400 72
2008-07-31 08:18:54 51°15.179 2°54.498 4.9 346 24.2 101410 72
2008-07-31 08:19:00 51°15.198 2°54.491 5 345 24.2 101410 72
2008-07-31 08:19:05 51°15.214 2°54.485 5 346 24.2 101400 72
2008-07-31 08:19:10 51°15.23 2°54.479 4.4 346 24.2 101400 72
2008-07-31 08:19:15 51°15.245 2°54.474 4.9 345 24.1 101410 72
2008-07-31 08:19:20 51°15.261 2°54.468 4.9 345 24.1 101410 72
2008-07-31 08:19:25 51°15.277 2°54.462 4.5 344 24.1 101400 72
2008-07-31 08:19:29 51°15.289 2°54.458 4.8 345 24.1 101400 72
2008-07-31 08:19:34 51°15.305 2°54.453 4.7 346 24.1 101410 73
2008-07-31 08:19:40 51°15.324 2°54.447 5.2 346 24.1 101410 73
2008-07-31 08:19:45 51°15.34 2°54.441 4.6 347 24 101410 73
2008-07-31 08:19:49 51°15.353 2°54.437 4.5 348 24 101410 73
2008-07-31 08:19:55 51°15.372 2°54.431 4.6 347 24 101410 73
2008-07-31 08:20:00 51°15.388 2°54.426 4.3 349 24 101410 73
2008-07-31 08:20:05 51°15.403 2°54.42 4.3 349 24 101410 73
2008-07-31 08:20:09 51°15.416 2°54.416 4.5 351 24 101410 73
2008-07-31 08:20:15 51°15.435 2°54.411 4.8 349 23.9 101400 73
2008-07-31 08:20:20 51°15.451 2°54.406 4.7 349 23.9 101400 73
2008-07-31 08:20:25 51°15.467 2°54.401 4.8 349 23.9 101410 73
2008-07-31 08:20:31 51°15.486 2°54.396 4.3 349 23.9 101410 73
2008-07-31 08:20:35 51°15.499 2°54.392 4.5 349 23.9 101400 73
2008-07-31 08:20:40 51°15.515 2°54.387 4.2 350 23.9 101400 73
2008-07-31 08:20:45 51°15.531 2°54.382 4.4 349 23.9 101400 73
2008-07-31 08:20:50 51°15.547 2°54.376 4.2 349 23.9 101400 73
2008-07-31 08:20:55 51°15.563 2°54.371 3.7 344 23.9 101410 74
2008-07-31 08:21:00 51°15.579 2°54.366 4.7 346 23.9 101410 74
2008-07-31 08:21:05 51°15.595 2°54.361 4.7 343 23.9 101400 74
2008-07-31 08:21:10 51°15.611 2°54.356 4.3 343 23.9 101400 74
2008-07-31 08:21:14 51°15.624 2°54.352 4.6 343 23.9 101400 74
2008-07-31 08:21:19 51°15.64 2°54.346 4.8 345 23.9 101400 74
2008-07-31 08:21:25 51°15.659 2°54.34 4.2 344 23.9 101410 75
2008-07-31 08:21:30 51°15.675 2°54.335 5.2 338 23.9 101410 75
2008-07-31 08:21:35 51°15.691 2°54.33 5.6 337 23.9 101400 75
2008-07-31 08:21:39 51°15.704 2°54.326 4.9 339 23.9 101400 75
2008-07-31 08:21:45 51°15.723 2°54.32 4.9 331 23.9 101400 75
2008-07-31 08:21:50 51°15.739 2°54.314 4.8 343 23.9 101400 75
2008-07-31 08:21:54 51°15.752 2°54.31 4.9 344 23.9 101400 76
2008-07-31 08:22:00 51°15.771 2°54.304 5.5 339 23.9 101400 76
2008-07-31 08:22:05 51°15.788 2°54.299 5.6 339 23.9 101400 76
2008-07-31 08:22:10 51°15.803 2°54.294 5 341 23.9 101400 76
2008-07-31 08:22:14 51°15.816 2°54.29 4.9 343 23.9 101400 76
2008-07-31 08:22:20 51°15.835 2°54.284 5.6 340 23.9 101400 76
2008-07-31 08:22:25 51°15.851 2°54.279 5.7 341 23.9 101410 76
2008-07-31 08:22:30 51°15.867 2°54.274 4.7 340 23.9 101410 76
2008-07-31 08:22:34 51°15.879 2°54.27 5.4 341 23.9 101400 76
2008-07-31 08:22:40 51°15.898 2°54.265 5.5 341 23.9 101400 76
2008-07-31 08:22:45 51°15.914 2°54.261 5.5 341 23.8 101400 77
2008-07-31 08:22:50 51°15.93 2°54.257 4.6 342 23.8 101400 77
2008-07-31 08:22:54 51°15.943 2°54.254 5.5 342 23.8 101400 77
2008-07-31 08:23:00 51°15.962 2°54.249 5.6 343 23.8 101400 77
2008-07-31 08:23:05 51°15.978 2°54.246 5.5 343 23.8 101410 77
2008-07-31 08:23:10 51°15.994 2°54.242 5 344 23.8 101410 77
2008-07-31 08:23:15 51°16.009 2°54.238 5 342 23.8 101410 77
2008-07-31 08:23:19 51°16.022 2°54.235 5.4 340 23.8 101410 77
2008-07-31 08:23:25 51°16.041 2°54.231 5.3 341 23.8 101400 77
2008-07-31 08:23:30 51°16.057 2°54.228 5.7 339 23.8 101400 77
2008-07-31 08:23:34 51°16.07 2°54.226 5.2 341 23.7 101400 77
2008-07-31 08:23:38 51°16.083 2°54.223 5 343 23.7 101400 77
2008-07-31 08:23:45 51°16.105 2°54.219 5.7 345 23.7 101400 78
2008-07-31 08:23:50 51°16.121 2°54.216 5.8 346 23.7 101400 78
2008-07-31 08:23:55 51°16.137 2°54.213 5.7 344 23.7 101400 78
2008-07-31 08:24:00 51°16.153 2°54.209 5.7 343 23.7 101400 78
2008-07-31 08:24:05 51°16.169 2°54.206 5.5 344 23.7 101400 78
2008-07-31 08:24:10 51°16.185 2°54.202 4.8 344 23.7 101400 78
2008-07-31 08:24:15 51°16.201 2°54.199 4.8 345 23.6 101400 78
2008-07-31 08:24:20 51°16.217 2°54.195 5.1 343 23.6 101400 78
2008-07-31 08:24:24 51°16.23 2°54.192 5.5 345 23.6 101400 78
2008-07-31 08:24:30 51°16.248 2°54.187 4.6 345 23.6 101400 78
2008-07-31 08:24:35 51°16.263 2°54.179 4.2 344 23.6 101400 78
2008-07-31 08:24:40 51°16.276 2°54.17 3.7 344 23.6 101400 78
2008-07-31 08:24:45 51°16.289 2°54.16 3.9 345 23.5 101400 78
2008-07-31 08:24:50 51°16.301 2°54.148 4 344 23.5 101400 78
2008-07-31 08:24:55 51°16.313 2°54.136 3.8 344 23.5 101400 79
2008-07-31 08:25:00 51°16.325 2°54.124 3.3 345 23.5 101400 79
2008-07-31 08:25:05 51°16.336 2°54.111 3.2 344 23.5 101400 79
2008-07-31 08:25:10 51°16.347 2°54.097 3.6 344 23.5 101400 79
2008-07-31 08:25:14 51°16.355 2°54.086 3.1 343 23.5 101400 79
2008-07-31 08:25:20 51°16.367 2°54.069 3 344 23.5 101400 79
2008-07-31 08:25:25 51°16.377 2°54.054 3.2 344 23.4 101400 79
2008-07-31 08:25:30 51°16.386 2°54.038 3 342 23.4 101400 79
2008-07-31 08:25:35 51°16.395 2°54.023 2.9 342 23.4 101400 79
2008-07-31 08:25:40 51°16.403 2°54.006 2.9 341 23.4 101400 79
2008-07-31 08:25:45 51°16.412 2°53.99 2.5 342 23.4 101400 79
2008-07-31 08:25:50 51°16.42 2°53.973 2.8 341 23.4 101400 79
2008-07-31 08:25:54 51°16.427 2°53.96 2.6 342 23.4 101400 79
2008-07-31 08:25:59 51°16.436 2°53.945 2.9 343 23.4 101400 79
2008-07-31 08:26:05 51°16.447 2°53.926 2.6 343 23.4 101400 79
2008-07-31 08:26:10 51°16.456 2°53.911 2.7 343 23.4 101400 79
2008-07-31 08:26:14 51°16.463 2°53.899 2.7 343 23.4 101400 79
2008-07-31 08:26:20 51°16.474 2°53.881 2.8 344 23.4 101400 79
2008-07-31 08:26:24 51°16.482 2°53.87 2.9 344 23.3 101400 79
2008-07-31 08:26:30 51°16.494 2°53.852 2.8 345 23.3 101400 79
2008-07-31 08:26:34 51°16.501 2°53.841 3.1 345 23.3 101400 79
2008-07-31 08:26:39 51°16.511 2°53.827 2.7 345 23.3 101400 79
2008-07-31 08:26:44 51°16.52 2°53.813 2.7 345 23.3 101400 79
2008-07-31 08:26:50 51°16.532 2°53.796 2.8 345 23.3 101400 79
2008-07-31 08:26:55 51°16.542 2°53.783 3.3 346 23.3 101400 79
2008-07-31 08:27:00 51°16.551 2°53.769 3 345 23.3 101400 79
2008-07-31 08:27:04 51°16.559 2°53.758 3 346 23.3 101400 79
2008-07-31 08:27:10 51°16.571 2°53.742 3 346 23.3 101400 79
2008-07-31 08:27:15 51°16.581 2°53.728 3.4 346 23.3 101400 80
2008-07-31 08:27:20 51°16.59 2°53.714 3 348 23.3 101400 80
2008-07-31 08:27:25 51°16.6 2°53.7 3 347 23.3 101400 79
2008-07-31 08:27:30 51°16.61 2°53.687 3.3 348 23.3 101400 79
2008-07-31 08:27:35 51°16.619 2°53.673 3.3 348 23.2 101400 80
2008-07-31 08:27:40 51°16.628 2°53.659 3.2 348 23.2 101400 80
2008-07-31 08:27:44 51°16.636 2°53.649 2.8 348 23.2 101400 80
2008-07-31 08:27:50 51°16.647 2°53.632 3.1 348 23.2 101400 80
2008-07-31 08:27:55 51°16.657 2°53.618 3.3 348 23.2 101400 80
2008-07-31 08:27:59 51°16.664 2°53.608 3.3 346 23.2 101400 80
2008-07-31 08:28:04 51°16.674 2°53.594 3.3 346 23.2 101400 80
2008-07-31 08:28:10 51°16.685 2°53.578 3.3 347 23.2 101400 80
2008-07-31 08:28:15 51°16.695 2°53.564 3.1 347 23.2 101400 80
2008-07-31 08:28:19 51°16.702 2°53.553 3.4 348 23.2 101400 80
2008-07-31 08:28:24 51°16.711 2°53.539 3.3 347 23.1 101400 80
2008-07-31 08:28:30 51°16.722 2°53.523 3 348 23.1 101400 80
2008-07-31 08:28:35 51°16.731 2°53.508 3.3 348 23.1 101400 80
2008-07-31 08:28:40 51°16.74 2°53.495 2.9 348 23.1 101400 80
2008-07-31 08:28:44 51°16.748 2°53.484 3.2 348 23.1 101400 80
2008-07-31 08:28:49 51°16.757 2°53.47 2.9 349 23.1 101400 80
2008-07-31 08:28:55 51°16.768 2°53.453 3.2 349 23 101400 80
2008-07-31 08:29:00 51°16.778 2°53.439 3 349 23 101400 80
2008-07-31 08:29:04 51°16.785 2°53.428 3.3 349 23 101400 80
2008-07-31 08:29:10 51°16.796 2°53.411 3.2 350 23 101400 80
2008-07-31 08:29:15 51°16.805 2°53.397 3.2 350 23 101400 80
2008-07-31 08:29:20 51°16.814 2°53.383 3.2 352 23 101400 80
2008-07-31 08:29:24 51°16.821 2°53.372 2.9 353 23 101400 81
2008-07-31 08:29:30 51°16.833 2°53.356 3 352 23 101400 81
2008-07-31 08:29:35 51°16.842 2°53.342 3 353 23 101400 80
2008-07-31 08:29:40 51°16.851 2°53.329 2.9 352 23 101400 80
2008-07-31 08:29:44 51°16.858 2°53.318 3.3 352 22.9 101400 81
2008-07-31 08:29:50 51°16.869 2°53.301 3.4 352 22.9 101400 81
2008-07-31 08:29:55 51°16.878 2°53.287 3.4 351 22.9 101410 81
2008-07-31 08:29:59 51°16.886 2°53.276 3.6 351 22.9 101410 81
2008-07-31 08:30:05 51°16.896 2°53.26 3.4 351 22.9 101400 81
2008-07-31 08:30:10 51°16.905 2°53.246 3.4 351 22.9 101400 81
2008-07-31 08:30:15 51°16.914 2°53.232 3 351 22.9 101400 81
2008-07-31 08:30:19 51°16.921 2°53.221 3 350 22.9 101400 81
2008-07-31 08:30:25 51°16.932 2°53.205 3.5 350 22.8 101400 81
2008-07-31 08:30:30 51°16.941 2°53.19 3.3 350 22.8 101400 81
2008-07-31 08:30:35 51°16.949 2°53.177 3.2 350 22.8 101400 82
2008-07-31 08:30:39 51°16.956 2°53.165 3.8 348 22.8 101400 82
2008-07-31 08:30:44 51°16.965 2°53.151 3.8 348 22.8 101400 82
2008-07-31 08:30:50 51°16.975 2°53.134 3.4 346 22.8 101400 82
2008-07-31 08:30:56 51°16.985 2°53.117 4 345 22.8 101400 82
2008-07-31 08:31:00 51°16.992 2°53.106 3.9 345 22.8 101400 82
2008-07-31 08:31:05 51°17.001 2°53.092 3.4 346 22.8 101400 83
2008-07-31 08:31:10 51°17.01 2°53.078 3.9 347 22.8 101400 83
2008-07-31 08:31:15 51°17.019 2°53.064 3.4 348 22.7 101400 83
2008-07-31 08:31:20 51°17.027 2°53.05 3.2 349 22.7 101400 83
2008-07-31 08:31:24 51°17.034 2°53.039 3.7 349 22.7 101400 83
2008-07-31 08:31:29 51°17.042 2°53.024 3.6 349 22.7 101400 83
2008-07-31 08:31:35 51°17.053 2°53.007 3.5 350 22.7 101400 83
2008-07-31 08:31:40 51°17.061 2°52.993 3.4 350 22.7 101400 83
2008-07-31 08:31:45 51°17.07 2°52.979 3.3 349 22.6 101400 83
2008-07-31 08:31:50 51°17.078 2°52.964 3.2 351 22.6 101400 83
2008-07-31 08:31:54 51°17.085 2°52.953 3.9 350 22.6 101400 83
2008-07-31 08:32:00 51°17.096 2°52.936 3.3 350 22.6 101400 83
2008-07-31 08:32:05 51°17.104 2°52.922 3.4 351 22.5 101400 83
2008-07-31 08:32:10 51°17.113 2°52.907 3.8 350 22.5 101400 83
2008-07-31 08:32:15 51°17.121 2°52.893 3.6 351 22.5 101400 84
2008-07-31 08:32:20 51°17.13 2°52.878 3.5 351 22.5 101400 84
2008-07-31 08:32:25 51°17.138 2°52.864 3.4 350 22.5 101400 84
2008-07-31 08:32:30 51°17.147 2°52.85 3.9 351 22.5 101400 84
2008-07-31 08:32:35 51°17.156 2°52.836 3.7 352 22.4 101400 84
2008-07-31 08:32:40 51°17.165 2°52.822 3.5 350 22.4 101400 84
2008-07-31 08:32:45 51°17.173 2°52.808 3.8 351 22.4 101400 84
2008-07-31 08:32:50 51°17.182 2°52.794 3.5 350 22.4 101400 84
2008-07-31 08:32:55 51°17.191 2°52.78 3.5 350 22.4 101400 84
2008-07-31 08:33:00 51°17.199 2°52.766 4 351 22.4 101400 84
2008-07-31 08:33:04 51°17.206 2°52.754 3.7 350 22.3 101400 85
2008-07-31 08:33:10 51°17.217 2°52.737 3.7 351 22.3 101400 85
2008-07-31 08:33:15 51°17.226 2°52.723 4.4 351 22.3 101400 85
2008-07-31 08:33:20 51°17.234 2°52.709 2.6 350 22.3 101400 85
2008-07-31 08:33:24 51°17.241 2°52.698 3.7 352 22.2 101400 85
2008-07-31 08:33:30 51°17.252 2°52.681 4 352 22.2 101400 85
2008-07-31 08:33:35 51°17.26 2°52.667 4 352 22.2 101410 85
2008-07-31 08:33:40 51°17.269 2°52.653 4.1 352 22.2 101410 85
2008-07-31 08:33:44 51°17.276 2°52.642 4.1 353 22.2 101400 85
2008-07-31 08:33:49 51°17.285 2°52.628 3.6 353 22.2 101400 85
2008-07-31 08:33:55 51°17.295 2°52.611 3.9 352 22.1 101400 85
2008-07-31 08:34:00 51°17.304 2°52.597 3.6 351 22.1 101400 85
2008-07-31 08:34:04 51°17.311 2°52.585 2.6 352 22.1 101400 85
2008-07-31 08:34:10 51°17.321 2°52.568 3.6 352 22.1 101400 85
2008-07-31 08:34:14 51°17.328 2°52.557 3.6 352 22.1 101400 86
2008-07-31 08:34:20 51°17.339 2°52.539 3.6 353 22.1 101400 86
2008-07-31 08:34:24 51°17.346 2°52.528 3.9 353 22 101400 86
2008-07-31 08:34:29 51°17.354 2°52.514 3.9 352 22 101400 86
2008-07-31 08:34:35 51°17.365 2°52.497 3.5 352 22 101400 86
2008-07-31 08:34:40 51°17.373 2°52.482 3.6 354 22 101400 86
2008-07-31 08:34:45 51°17.382 2°52.468 4.2 353 22 101400 86
2008-07-31 08:34:50 51°17.391 2°52.454 3.9 353 22 101400 86
2008-07-31 08:34:55 51°17.4 2°52.44 4 354 22 101400 86
2008-07-31 08:35:00 51°17.408 2°52.426 4.2 353 22 101400 86
2008-07-31 08:35:05 51°17.417 2°52.412 4.1 353 22 101410 87
2008-07-31 08:35:10 51°17.426 2°52.398 4.6 354 22 101410 87
2008-07-31 08:35:15 51°17.435 2°52.385 4.2 354 21.9 101400 87
2008-07-31 08:35:20 51°17.444 2°52.371 4.2 355 21.9 101400 87
2008-07-31 08:35:24 51°17.451 2°52.359 4.5 355 21.9 101400 87
2008-07-31 08:35:30 51°17.462 2°52.343 4.1 355 21.9 101400 87
2008-07-31 08:35:35 51°17.471 2°52.328 4 355 21.9 101400 87
2008-07-31 08:35:40 51°17.48 2°52.314 4.3 356 21.9 101400 87
2008-07-31 08:35:44 51°17.487 2°52.303 4.7 356 21.9 101400 87
2008-07-31 08:35:48 51°17.494 2°52.292 4.3 356 21.9 101400 87
2008-07-31 08:35:55 51°17.506 2°52.273 4.3 355 21.8 101400 87
2008-07-31 08:36:00 51°17.515 2°52.259 4.5 356 21.8 101400 87
2008-07-31 08:36:05 51°17.524 2°52.244 4.4 357 21.8 101400 88
2008-07-31 08:36:10 51°17.533 2°52.23 4.4 356 21.8 101400 88
2008-07-31 08:36:15 51°17.542 2°52.216 4.3 356 21.8 101400 88
2008-07-31 08:36:20 51°17.551 2°52.202 2.6 356 21.8 101400 88
2008-07-31 08:36:24 51°17.558 2°52.19 4 357 21.8 101400 88
2008-07-31 08:36:30 51°17.568 2°52.174 4.7 356 21.8 101400 88
2008-07-31 08:36:35 51°17.577 2°52.16 4.5 357 21.7 101400 88
2008-07-31 08:36:40 51°17.586 2°52.146 4.7 356 21.7 101400 88
2008-07-31 08:36:45 51°17.595 2°52.131 4.9 357 21.7 101400 88
2008-07-31 08:36:50 51°17.604 2°52.117 4.5 357 21.7 101400 88
2008-07-31 08:36:55 51°17.613 2°52.103 5 357 21.7 101400 88
2008-07-31 08:37:00 51°17.621 2°52.089 4.6 356 21.7 101400 88
2008-07-31 08:37:05 51°17.63 2°52.075 4.8 357 21.7 101400 88
2008-07-31 08:37:10 51°17.639 2°52.061 4.8 357 21.7 101400 88
2008-07-31 08:37:15 51°17.648 2°52.047 5.2 357 21.7 101400 88
2008-07-31 08:37:20 51°17.656 2°52.033 4.8 357 21.7 101400 88
2008-07-31 08:37:24 51°17.663 2°52.022 5.2 357 21.6 101400 89
2008-07-31 08:37:30 51°17.674 2°52.005 5.3 356 21.6 101400 89
2008-07-31 08:37:35 51°17.683 2°51.991 4.9 356 21.6 101400 88
2008-07-31 08:37:40 51°17.691 2°51.977 5.5 357 21.6 101400 88
2008-07-31 08:37:44 51°17.698 2°51.966 5 357 21.6 101400 89
2008-07-31 08:37:50 51°17.709 2°51.949 5.5 357 21.6 101400 89
2008-07-31 08:37:55 51°17.718 2°51.935 5 357 21.6 101400 89
2008-07-31 08:38:00 51°17.727 2°51.922 5.2 356 21.6 101400 89
2008-07-31 08:38:04 51°17.734 2°51.911 6 356 21.5 101400 89
2008-07-31 08:38:10 51°17.746 2°51.897 6.1 356 21.5 101400 89
2008-07-31 08:38:15 51°17.756 2°51.885 5.4 356 21.5 101400 89
2008-07-31 08:38:20 51°17.766 2°51.873 6.1 355 21.5 101400 89
2008-07-31 08:38:24 51°17.774 2°51.864 5.5 355 21.5 101400 89
2008-07-31 08:38:30 51°17.786 2°51.852 6.4 354 21.5 101400 89
2008-07-31 08:38:35 51°17.797 2°51.843 6.5 353 21.5 101400 89
2008-07-31 08:38:40 51°17.808 2°51.836 6.3 353 21.5 101400 89
2008-07-31 08:38:44 51°17.817 2°51.83 6.1 352 21.4 101400 90
2008-07-31 08:38:49 51°17.828 2°51.825 7 351 21.4 101400 90
2008-07-31 08:38:55 51°17.841 2°51.821 7.1 350 21.4 101400 89
2008-07-31 08:39:00 51°17.853 2°51.818 6.6 348 21.4 101400 89
2008-07-31 08:39:05 51°17.865 2°51.816 6.4 348 21.4 101400 89
2008-07-31 08:39:10 51°17.876 2°51.815 7.3 346 21.4 101400 89
2008-07-31 08:39:15 51°17.887 2°51.814 6.4 347 21.4 101400 90
2008-07-31 08:39:20 51°17.899 2°51.814 7.4 347 21.4 101400 90
2008-07-31 08:39:25 51°17.911 2°51.814 7.5 348 21.3 101400 90
2008-07-31 08:39:30 51°17.922 2°51.814 6.8 347 21.3 101400 90
2008-07-31 08:39:35 51°17.934 2°51.815 7.8 347 21.3 101390 90
2008-07-31 08:39:40 51°17.946 2°51.816 7.2 347 21.3 101390 90
2008-07-31 08:39:45 51°17.957 2°51.818 6.9 347 21.3 101400 90
2008-07-31 08:39:50 51°17.969 2°51.82 7.5 348 21.3 101400 90
2008-07-31 08:39:55 51°17.98 2°51.824 7.8 348 21.3 101390 90
2008-07-31 08:40:00 51°17.991 2°51.827 7.2 347 21.3 101390 90
2008-07-31 08:40:04 51°18 2°51.831 8.1 347 21.3 101390 90
2008-07-31 08:40:10 51°18.013 2°51.838 7.3 346 21.3 101390 90
2008-07-31 08:40:15 51°18.024 2°51.845 7.3 346 21.2 101390 90
2008-07-31 08:40:20 51°18.034 2°51.853 7.3 345 21.2 101390 90
2008-07-31 08:40:24 51°18.043 2°51.859 7.4 345 21.2 101390 90
2008-07-31 08:40:29 51°18.053 2°51.868 8.3 345 21.2 101390 90
2008-07-31 08:40:35 51°18.065 2°51.878 7.6 345 21.2 101390 90
2008-07-31 08:40:40 51°18.075 2°51.887 7.4 345 21.2 101390 90
2008-07-31 08:40:44 51°18.083 2°51.894 7.4 345 21.2 101390 91
2008-07-31 08:40:50 51°18.095 2°51.905 7.4 345 21.2 101390 91
2008-07-31 08:40:54 51°18.103 2°51.913 7.5 345 21.2 101390 91
2008-07-31 08:41:00 51°18.115 2°51.925 7.7 344 21.2 101390 91
2008-07-31 08:41:04 51°18.123 2°51.933 7.8 345 21.2 101390 90
2008-07-31 08:41:10 51°18.134 2°51.945 8.6 344 21.2 101390 90
2008-07-31 08:41:15 51°18.144 2°51.956 7.7 345 21.2 101390 90
2008-07-31 08:41:20 51°18.153 2°51.966 7.5 344 21.2 101390 90
2008-07-31 08:41:25 51°18.163 2°51.977 8.2 344 21.3 101390 91
2008-07-31 08:41:30 51°18.172 2°51.988 7.6 344 21.3 101390 91
2008-07-31 08:41:35 51°18.182 2°51.999 7.4 344 21.3 101390 90
2008-07-31 08:41:40 51°18.191 2°52.01 8.6 344 21.3 101390 90
2008-07-31 08:41:45 51°18.2 2°52.022 8.6 343 21.3 101390 91
2008-07-31 08:41:50 51°18.21 2°52.033 8.7 342 21.3 101390 91
2008-07-31 08:41:55 51°18.219 2°52.045 8 342 21.3 101390 91
2008-07-31 08:42:00 51°18.228 2°52.058 8.9 341 21.3 101390 91
2008-07-31 08:42:05 51°18.237 2°52.071 8.9 340 21.3 101390 90
2008-07-31 08:42:10 51°18.247 2°52.085 9.4 339 21.3 101390 90
2008-07-31 08:42:15 51°18.256 2°52.1 8.6 339 21.3 101390 91
2008-07-31 08:42:20 51°18.265 2°52.115 9.7 337 21.3 101390 91
2008-07-31 08:42:24 51°18.272 2°52.127 9 337 21.3 101390 90
2008-07-31 08:42:29 51°18.281 2°52.144 10 336 21.3 101390 90
2008-07-31 08:42:35 51°18.291 2°52.165 9 336 21.4 101390 91
2008-07-31 08:42:40 51°18.299 2°52.182 9 334 21.4 101390 91
2008-07-31 08:42:45 51°18.307 2°52.2 8.9 335 21.4 101390 91
2008-07-31 08:42:49 51°18.313 2°52.215 8.9 334 21.4 101390 91
2008-07-31 08:42:55 51°18.322 2°52.238 10.1 334 21.4 101390 90
2008-07-31 08:43:00 51°18.33 2°52.257 9.1 334 21.4 101390 90
2008-07-31 08:43:05 51°18.338 2°52.277 10.2 333 21.4 101390 90
2008-07-31 08:43:10 51°18.345 2°52.297 10.4 333 21.4 101390 90
2008-07-31 08:43:15 51°18.352 2°52.318 9.2 333 21.4 101390 90
2008-07-31 08:43:20 51°18.36 2°52.338 10.8 333 21.4 101390 90
2008-07-31 08:43:25 51°18.367 2°52.36 10 332 21.4 101390 90
2008-07-31 08:43:29 51°18.372 2°52.378 10.8 332 21.4 101390 90
2008-07-31 08:43:35 51°18.381 2°52.404 10.6 332 21.4 101390 90
2008-07-31 08:43:40 51°18.387 2°52.427 9.5 331 21.4 101390 90
2008-07-31 08:43:45 51°18.393 2°52.45 10.1 331 21.4 101390 90
2008-07-31 08:43:50 51°18.398 2°52.473 9.2 331 21.4 101390 90
2008-07-31 08:43:55 51°18.404 2°52.496 8.8 331 21.4 101380 90
2008-07-31 08:44:00 51°18.409 2°52.52 9.8 331 21.4 101380 90
2008-07-31 08:44:05 51°18.415 2°52.544 9.8 331 21.4 101390 90
2008-07-31 08:44:10 51°18.42 2°52.567 9 332 21.4 101390 90
2008-07-31 08:44:15 51°18.425 2°52.591 10 332 21.4 101390 90
2008-07-31 08:44:20 51°18.431 2°52.614 8.8 332 21.4 101390 90
2008-07-31 08:44:24 51°18.435 2°52.633 9.1 332 21.4 101390 90
2008-07-31 08:44:30 51°18.442 2°52.661 10.3 333 21.4 101390 90
2008-07-31 08:44:35 51°18.447 2°52.685 10.1 332 21.4 101390 90
2008-07-31 08:44:40 51°18.453 2°52.708 10.1 333 21.4 101390 90
2008-07-31 08:44:44 51°18.457 2°52.727 9.8 333 21.4 101390 90
2008-07-31 08:44:50 51°18.463 2°52.756 8.7 333 21.4 101390 90
2008-07-31 08:44:55 51°18.469 2°52.779 10.1 334 21.4 101390 90
2008-07-31 08:45:00 51°18.474 2°52.803 9.2 333 21.4 101390 90
2008-07-31 08:45:05 51°18.48 2°52.827 8.8 334 21.4 101390 90
2008-07-31 08:45:10 51°18.485 2°52.85 9 334 21.4 101390 90
2008-07-31 08:45:15 51°18.49 2°52.874 8.5 333 21.4 101390 90
2008-07-31 08:45:20 51°18.496 2°52.897 8.8 333 21.4 101390 90
2008-07-31 08:45:24 51°18.501 2°52.916 9.4 333 21.4 101390 90
2008-07-31 08:45:29 51°18.506 2°52.939 9 333 21.4 101390 90
2008-07-31 08:45:35 51°18.513 2°52.968 8.7 334 21.4 101390 90
2008-07-31 08:45:40 51°18.519 2°52.991 8.8 334 21.4 101390 90
2008-07-31 08:45:45 51°18.524 2°53.015 8.8 332 21.4 101390 90
2008-07-31 08:45:50 51°18.53 2°53.039 9.9 333 21.4 101390 90
2008-07-31 08:45:55 51°18.533 2°53.063 8.8 333 21.4 101390 90
2008-07-31 08:46:00 51°18.537 2°53.088 9.7 331 21.4 101390 90
2008-07-31 08:46:05 51°18.54 2°53.112 9.4 332 21.3 101390 90
2008-07-31 08:46:10 51°18.544 2°53.137 9.6 330 21.3 101390 90
2008-07-31 08:46:15 51°18.547 2°53.162 8.5 331 21.3 101390 91
2008-07-31 08:46:20 51°18.549 2°53.186 8.7 331 21.3 101390 91
2008-07-31 08:46:24 51°18.552 2°53.206 10.1 331 21.4 101390 91
2008-07-31 08:46:30 51°18.555 2°53.236 4.4 331 21.4 101390 91
2008-07-31 08:46:35 51°18.558 2°53.26 8.6 331 21.4 101390 91
2008-07-31 08:46:40 51°18.56 2°53.285 8.9 330 21.4 101390 91
2008-07-31 08:46:44 51°18.562 2°53.305 8.7 329 21.4 101380 91
2008-07-31 08:46:50 51°18.564 2°53.335 9.5 328 21.4 101380 91
2008-07-31 08:46:55 51°18.564 2°53.36 9.6 328 21.4 101380 91
2008-07-31 08:47:00 51°18.564 2°53.385 9.6 300 21.4 101380 91
2008-07-31 08:47:04 51°18.563 2°53.406 8.6 326 21.3 101390 91
2008-07-31 08:47:10 51°18.56 2°53.436 8.5 300 21.3 101390 91
2008-07-31 08:47:15 51°18.556 2°53.461 9.5 325 21.4 101390 91
2008-07-31 08:47:20 51°18.552 2°53.486 9.4 305 21.4 101390 91
2008-07-31 08:47:25 51°18.548 2°53.51 8.2 325 21.4 101390 91
2008-07-31 08:47:30 51°18.543 2°53.534 8.4 300 21.4 101390 91
2008-07-31 08:47:35 51°18.537 2°53.559 8.2 325 21.3 101390 91
2008-07-31 08:47:40 51°18.532 2°53.584 8.4 304 21.3 101390 91
2008-07-31 08:47:45 51°18.527 2°53.608 8.4 325 21.3 101390 91
2008-07-31 08:47:50 51°18.521 2°53.632 8.3 303 21.3 101390 91
2008-07-31 08:47:55 51°18.514 2°53.656 9.2 325 21.4 101390 91
2008-07-31 08:48:00 51°18.508 2°53.68 9.4 301 21.4 101390 91
2008-07-31 08:48:04 51°18.503 2°53.699 8.5 325 21.4 101390 91
2008-07-31 08:48:10 51°18.496 2°53.729 9.5 305 21.4 101390 91
2008-07-31 08:48:15 51°18.49 2°53.753 8.5 325 21.4 101390 91
2008-07-31 08:48:20 51°18.484 2°53.777 9.6 302 21.4 101390 91
2008-07-31 08:48:25 51°18.477 2°53.801 9.8 324 21.4 101380 91
2008-07-31 08:48:30 51°18.47 2°53.825 9.5 300 21.4 101380 91
2008-07-31 08:48:35 51°18.464 2°53.849 9.7 324 21.4 101380 91
2008-07-31 08:48:40 51°18.456 2°53.872 9.7 305 21.4 101380 91
2008-07-31 08:48:44 51°18.451 2°53.891 8.8 324 21.4 101390 91
2008-07-31 08:48:50 51°18.443 2°53.92 8.5 302 21.4 101390 91
2008-07-31 08:48:55 51°18.436 2°53.943 9.8 324 21.4 101380 91
2008-07-31 08:49:00 51°18.429 2°53.967 9.7 305 21.4 101380 91
2008-07-31 08:49:05 51°18.423 2°53.991 8.5 324 21.4 101380 91
2008-07-31 08:49:09 51°18.417 2°54.011 9.7 300 21.4 101380 91
2008-07-31 08:49:15 51°18.41 2°54.039 8.8 324 21.4 101380 91
2008-07-31 08:49:20 51°18.404 2°54.062 9.1 300 21.4 101380 91
2008-07-31 08:49:24 51°18.399 2°54.079 9 323 21.5 101380 91
2008-07-31 08:49:30 51°18.393 2°54.103 8.6 302 21.5 101380 91
2008-07-31 08:49:35 51°18.387 2°54.122 8.6 323 21.5 101380 91
2008-07-31 08:49:40 51°18.382 2°54.14 7.5 303 21.5 101380 91
2008-07-31 08:49:45 51°18.376 2°54.158 8.2 322 21.5 101380 91
2008-07-31 08:49:50 51°18.37 2°54.175 8.2 299 21.5 101380 91
2008-07-31 08:49:55 51°18.365 2°54.192 8.3 322 21.5 101380 91
2008-07-31 08:50:00 51°18.36 2°54.208 8.1 302 21.5 101380 91
2008-07-31 08:50:05 51°18.355 2°54.224 7.3 322 21.5 101390 91
2008-07-31 08:50:10 51°18.35 2°54.24 7.2 306 21.5 101390 91
2008-07-31 08:50:15 51°18.345 2°54.255 7.5 323 21.5 101380 91
2008-07-31 08:50:20 51°18.34 2°54.271 8 305 21.5 101380 91
2008-07-31 08:50:25 51°18.336 2°54.286 7.9 323 21.5 101390 91
2008-07-31 08:50:29 51°18.332 2°54.298 7.3 299 21.5 101390 91
2008-07-31 08:50:35 51°18.327 2°54.317 7.2 323 21.5 101390 91
2008-07-31 08:50:40 51°18.323 2°54.332 7.1 304 21.5 101390 91
2008-07-31 08:50:45 51°18.319 2°54.347 8 324 21.6 101390 91
2008-07-31 08:50:50 51°18.315 2°54.362 7.8 305 21.6 101390 91
2008-07-31 08:50:55 51°18.31 2°54.378 6.9 325 21.6 101380 91
2008-07-31 08:51:00 51°18.306 2°54.393 8 302 21.6 101380 91
2008-07-31 08:51:05 51°18.303 2°54.408 7.3 324 21.6 101390 91
2008-07-31 08:51:10 51°18.299 2°54.423 8 301 21.6 101390 91
2008-07-31 08:51:15 51°18.295 2°54.438 7.1 325 21.6 101380 91
2008-07-31 08:51:20 51°18.291 2°54.453 7.3 325 21.6 101380 91
2008-07-31 08:51:25 51°18.287 2°54.468 7.2 325 21.6 101390 91
2008-07-31 08:51:30 51°18.283 2°54.483 7 305 21.6 101390 91
2008-07-31 08:51:35 51°18.28 2°54.498 7.2 325 21.7 101390 91
2008-07-31 08:51:40 51°18.276 2°54.513 7.9 324 21.7 101390 91
2008-07-31 08:51:45 51°18.273 2°54.528 8.2 325 21.7 101390 90
2008-07-31 08:51:50 51°18.269 2°54.543 7.2 325 21.7 101390 90
2008-07-31 08:51:55 51°18.266 2°54.558 7.2 325 21.7 101390 90
2008-07-31 08:52:00 51°18.262 2°54.573 7.2 325 21.7 101390 90
2008-07-31 08:52:05 51°18.259 2°54.588 7.3 325 21.7 101390 90
2008-07-31 08:52:10 51°18.256 2°54.603 7.2 326 21.7 101390 90
2008-07-31 08:52:14 51°18.253 2°54.615 7.3 326 21.7 101390 90
2008-07-31 08:52:20 51°18.249 2°54.633 8 304 21.7 101390 90
2008-07-31 08:52:25 51°18.247 2°54.648 8 325 21.7 101390 90
2008-07-31 08:52:29 51°18.244 2°54.661 7.2 301 21.7 101390 90
2008-07-31 08:52:35 51°18.241 2°54.679 7.9 325 21.7 101380 90
2008-07-31 08:52:40 51°18.237 2°54.694 7.9 300 21.7 101380 90
2008-07-31 08:52:45 51°18.235 2°54.709 7.2 325 21.7 101380 90
2008-07-31 08:52:50 51°18.231 2°54.724 7.9 303 21.7 101380 90
2008-07-31 08:52:54 51°18.229 2°54.736 7.7 325 21.7 101390 90
2008-07-31 08:53:00 51°18.226 2°54.752 6.7 303 21.7 101390 90
2008-07-31 08:53:05 51°18.223 2°54.764 6.4 326 21.8 101390 90
2008-07-31 08:53:10 51°18.221 2°54.775 6.1 300 21.8 101390 90
2008-07-31 08:53:14 51°18.219 2°54.783 6.5 327 21.8 101380 90
2008-07-31 08:53:20 51°18.218 2°54.793 5.9 300 21.8 101380 90
2008-07-31 08:53:25 51°18.217 2°54.8 5.2 330 21.8 101390 90
2008-07-31 08:53:30 51°18.217 2°54.805 5.4 331 21.8 101390 90
2008-07-31 08:53:35 51°18.216 2°54.809 5 332 21.8 101390 90
2008-07-31 08:53:40 51°18.216 2°54.812 4.7 335 21.8 101390 90
2008-07-31 08:53:45 51°18.216 2°54.813 4.2 337 21.8 101390 90
2008-07-31 08:53:50 51°18.215 2°54.814 3.9 341 21.8 101390 90
2008-07-31 08:53:55 51°18.214 2°54.814 4.2 343 21.8 101390 90
2008-07-31 08:54:00 51°18.213 2°54.813 3.6 346 21.8 101390 90
2008-07-31 08:54:05 51°18.211 2°54.811 3.3 346 21.9 101390 90
2008-07-31 08:54:10 51°18.21 2°54.81 3.8 346 21.9 101390 90
2008-07-31 08:54:15 51°18.208 2°54.808 3.5 347 21.9 101390 89
2008-07-31 08:54:20 51°18.207 2°54.807 3.5 349 21.9 101390 89
2008-07-31 08:54:25 51°18.205 2°54.806 3.7 348 21.9 101390 89
2008-07-31 08:54:30 51°18.204 2°54.804 3.7 348 21.9 101390 89
2008-07-31 08:54:34 51°18.203 2°54.803 4.1 350 21.9 101390 89
2008-07-31 08:54:40 51°18.201 2°54.801 3.5 350 21.9 101390 89
2008-07-31 08:54:45 51°18.199 2°54.799 3.6 349 21.9 101390 89
2008-07-31 08:54:50 51°18.197 2°54.797 3.6 349 21.9 101390 89
2008-07-31 08:54:56 51°18.195 2°54.795 3.7 350 21.9 101390 89
2008-07-31 08:55:02 51°18.193 2°54.792 3.7 349 21.9 101390 89
2008-07-31 08:55:07 51°18.191 2°54.791 3.6 349 21.9 101390 89
2008-07-31 08:55:13 51°18.189 2°54.788 3.4 348 21.9 101390 89
2008-07-31 08:55:17 51°18.187 2°54.787 3.3 348 21.9 101390 89
2008-07-31 08:55:23 51°18.185 2°54.784 3.3 347 21.9 101390 89
2008-07-31 08:55:28 51°18.183 2°54.782 3.4 347 21.9 101390 89
2008-07-31 08:55:33 51°18.181 2°54.78 3.3 347 21.9 101390 89
2008-07-31 08:55:38 51°18.179 2°54.778 3.7 347 21.9 101390 89
2008-07-31 08:55:43 51°18.177 2°54.777 3.3 346 21.9 101390 89
2008-07-31 08:55:47 51°18.176 2°54.775 3.3 346 21.9 101390 89
2008-07-31 08:55:53 51°18.174 2°54.773 3.6 346 21.9 101390 89
2008-07-31 08:55:57 51°18.173 2°54.771 3.6 346 21.9 101390 89
2008-07-31 08:56:02 51°18.171 2°54.769 3.7 344 21.9 101390 89
2008-07-31 08:56:07 51°18.17 2°54.767 3.3 343 21.8 101390 89
2008-07-31 08:56:12 51°18.169 2°54.766 3.8 343 21.8 101390 89
2008-07-31 08:56:17 51°18.168 2°54.765 3.7 344 21.9 101390 89
2008-07-31 08:56:22 51°18.168 2°54.764 4 344 21.9 101390 89
2008-07-31 08:56:26 51°18.167 2°54.763 4.1 345 21.8 101390 89
2008-07-31 08:56:32 51°18.167 2°54.763 3.9 345 21.8 101390 89
2008-07-31 08:56:37 51°18.167 2°54.763 4.3 348 21.8 101390 89
2008-07-31 08:56:43 51°18.167 2°54.764 4.5 349 21.8 101390 89
2008-07-31 08:56:48 51°18.168 2°54.764 4.5 350 21.8 101390 89
2008-07-31 08:56:53 51°18.168 2°54.765 4.1 351 21.8 101390 89
2008-07-31 08:56:58 51°18.168 2°54.765 4.6 351 21.8 101390 89
2008-07-31 08:57:02 51°18.168 2°54.766 4.2 350 21.8 101390 89
2008-07-31 08:57:07 51°18.168 2°54.766 4.6 350 21.8 101390 89
2008-07-31 08:57:12 51°18.169 2°54.767 4.1 350 21.8 101390 89
2008-07-31 08:57:17 51°18.169 2°54.768 4.1 351 21.8 101380 89
2008-07-31 08:57:22 51°18.169 2°54.768 4.5 351 21.8 101380 89
2008-07-31 08:57:27 51°18.169 2°54.769 4.5 352 21.8 101390 89
2008-07-31 08:57:32 51°18.169 2°54.769 4 352 21.8 101390 89
2008-07-31 08:57:37 51°18.169 2°54.77 4.1 352 21.8 101390 89
2008-07-31 08:57:41 51°18.169 2°54.77 4.5 352 21.8 101390 89
2008-07-31 08:57:46 51°18.169 2°54.771 4.5 352 21.8 101380 89
2008-07-31 08:57:51 51°18.169 2°54.771 4.4 352 21.8 101380 89
2008-07-31 08:57:56 51°18.169 2°54.771 4.3 353 21.8 101390 89
2008-07-31 08:58:01 51°18.169 2°54.772 4.3 353 21.8 101390 89
2008-07-31 08:58:05 51°18.169 2°54.772 4.3 353 21.8 101390 89
2008-07-31 08:58:10 51°18.169 2°54.772 4 353 21.8 101390 89
2008-07-31 08:58:15 51°18.169 2°54.773 4 354 21.7 101390 89
2008-07-31 08:58:20 51°18.169 2°54.773 4 354 21.7 101390 89
2008-07-31 08:58:25 51°18.169 2°54.773 3.9 354 21.8 101380 89
2008-07-31 08:58:30 51°18.169 2°54.773 4.3 354 21.8 101380 89
2008-07-31 08:58:34 51°18.169 2°54.773 4.3 355 21.7 101390 89
2008-07-31 08:58:40 51°18.169 2°54.773 4.5 356 21.7 101390 89
2008-07-31 08:58:45 51°18.169 2°54.773 3.9 356 21.7 101390 89
2008-07-31 08:58:49 51°18.169 2°54.773 4.3 356 21.7 101390 89
2008-07-31 08:58:55 51°18.169 2°54.773 4.2 356 21.7 101380 89
2008-07-31 08:59:00 51°18.169 2°54.772 3.9 356 21.7 101380 89
2008-07-31 08:59:05 51°18.169 2°54.772 4.3 357 21.7 101390 89
2008-07-31 08:59:10 51°18.169 2°54.772 4.1 357 21.7 101390 89
2008-07-31 08:59:15 51°18.169 2°54.772 3.9 358 21.7 101390 89
2008-07-31 08:59:20 51°18.169 2°54.771 4.4 358 21.7 101390 89
2008-07-31 08:59:25 51°18.169 2°54.771 4 359 21.7 101380 89
2008-07-31 08:59:30 51°18.169 2°54.771 4.1 1 21.7 101380 89
2008-07-31 08:59:34 51°18.168 2°54.77 3.9 1 21.7 101390 89
2008-07-31 08:59:40 51°18.168 2°54.77 3.6 1 21.7 101390 89
2008-07-31 08:59:45 51°18.168 2°54.77 3.7 3 21.7 101390 89
2008-07-31 08:59:50 51°18.168 2°54.769 3.7 2 21.7 101390 89
2008-07-31 08:59:54 51°18.168 2°54.769 3.9 2 21.7 101390 90
2008-07-31 09:00:00 51°18.168 2°54.768 3.6 2 21.7 101390 90
2008-07-31 09:00:05 51°18.168 2°54.768 3.8 4 21.7 101390 90
2008-07-31 09:00:10 51°18.168 2°54.767 3.5 4 21.7 101390 90
2008-07-31 09:00:15 51°18.168 2°54.767 3.3 3 21.7 101390 89
2008-07-31 09:00:20 51°18.168 2°54.766 3.6 7 21.7 101390 89
2008-07-31 09:00:25 51°18.168 2°54.766 3.3 3 21.7 101380 90
2008-07-31 09:00:30 51°18.168 2°54.766 3.7 3 21.7 101380 90
2008-07-31 09:00:34 51°18.168 2°54.765 3.7 3 21.7 101380 90
2008-07-31 09:00:40 51°18.168 2°54.765 3.9 2 21.7 101380 90
2008-07-31 09:00:45 51°18.168 2°54.765 3.7 3 21.7 101390 90
2008-07-31 09:00:50 51°18.168 2°54.765 3.5 2 21.7 101390 90
2008-07-31 09:00:55 51°18.168 2°54.765 4.1 2 21.7 101390 90
2008-07-31 09:01:00 51°18.168 2°54.765 4.2 1 21.7 101390 90
2008-07-31 09:01:05 51°18.168 2°54.765 4 1 21.7 101390 90
2008-07-31 09:01:09 51°18.168 2°54.765 4.1 360 21.7 101390 90
2008-07-31 09:01:14 51°18.168 2°54.765 4.3 1 21.7 101390 90
2008-07-31 09:01:20 51°18.169 2°54.765 4.3 358 21.7 101390 90
2008-07-31 09:01:25 51°18.169 2°54.765 3.9 359 21.7 101390 90
2008-07-31 09:01:30 51°18.169 2°54.765 3.8 358 21.7 101390 90
2008-07-31 09:01:34 51°18.169 2°54.765 3.8 359 21.7 101390 90
2008-07-31 09:01:40 51°18.169 2°54.766 3.8 357 21.7 101390 90
2008-07-31 09:01:45 51°18.169 2°54.766 3.9 359 21.7 101390 90
2008-07-31 09:01:50 51°18.169 2°54.766 4 358 21.7 101390 90
2008-07-31 09:01:54 51°18.169 2°54.766 4 358 21.7 101390 90
2008-07-31 09:02:00 51°18.17 2°54.766 3.5 357 21.7 101390 90
2008-07-31 09:02:05 51°18.17 2°54.766 3.9 357 21.7 101390 90
2008-07-31 09:02:10 51°18.17 2°54.766 3.7 357 21.7 101390 90
2008-07-31 09:02:15 51°18.17 2°54.766 4 358 21.7 101380 90
2008-07-31 09:02:20 51°18.17 2°54.766 3.6 357 21.7 101380 90
2008-07-31 09:02:25 51°18.17 2°54.766 4 356 21.7 101390 90
2008-07-31 09:02:30 51°18.17 2°54.766 3.7 357 21.7 101390 90
2008-07-31 09:02:34 51°18.17 2°54.766 4.1 357 21.7 101390 90
2008-07-31 09:02:40 51°18.17 2°54.766 3.7 358 21.7 101390 90
2008-07-31 09:02:45 51°18.17 2°54.766 4 357 21.7 101390 90
2008-07-31 09:02:50 51°18.17 2°54.766 3.9 357 21.7 101390 90
2008-07-31 09:02:55 51°18.17 2°54.766 4 357 21.7 101390 90
2008-07-31 09:03:00 51°18.17 2°54.766 3.9 358 21.7 101390 90
2008-07-31 09:03:05 51°18.17 2°54.766 3.9 357 21.6 101390 90
2008-07-31 09:03:10 51°18.17 2°54.766 3.8 358 21.6 101390 90
2008-07-31 09:03:15 51°18.17 2°54.766 4.1 358 21.7 101390 90
2008-07-31 09:03:20 51°18.17 2°54.766 3.7 359 21.7 101390 90
2008-07-31 09:03:25 51°18.17 2°54.766 4 359 21.7 101390 90
2008-07-31 09:03:29 51°18.17 2°54.766 3.8 359 21.7 101390 90
2008-07-31 09:03:34 51°18.17 2°54.766 3.7 359 21.7 101390 90
2008-07-31 09:03:40 51°18.17 2°54.766 3.8 358 21.7 101390 90
2008-07-31 09:03:45 51°18.17 2°54.766 3.7 359 21.6 101390 90
2008-07-31 09:03:50 51°18.17 2°54.766 3.9 359 21.6 101390 90
2008-07-31 09:03:54 51°18.17 2°54.766 3.6 359 21.6 101390 90
2008-07-31 09:04:00 51°18.17 2°54.766 4.1 359 21.6 101390 90
2008-07-31 09:04:05 51°18.17 2°54.766 4.1 359 21.7 101390 90
2008-07-31 09:04:10 51°18.17 2°54.765 3.6 360 21.7 101390 90
2008-07-31 09:04:15 51°18.17 2°54.766 4 360 21.6 101390 90
2008-07-31 09:04:20 51°18.17 2°54.765 3.8 359 21.6 101390 90
2008-07-31 09:04:25 51°18.17 2°54.766 4.1 359 21.7 101390 90
2008-07-31 09:04:30 51°18.169 2°54.765 3.6 359 21.7 101390 90
2008-07-31 09:04:34 51°18.169 2°54.765 3.8 358 21.7 101390 90
2008-07-31 09:04:40 51°18.169 2°54.765 3.7 359 21.7 101390 90
2008-07-31 09:04:45 51°18.169 2°54.765 4 358 21.7 101390 90
2008-07-31 09:04:50 51°18.169 2°54.765 3.7 359 21.7 101390 90
2008-07-31 09:04:55 51°18.169 2°54.765 3.6 359 21.7 101390 90
2008-07-31 09:05:00 51°18.169 2°54.765 3.8 358 21.7 101390 90
2008-07-31 09:05:05 51°18.169 2°54.765 3.8 359 21.7 101390 90
2008-07-31 09:05:10 51°18.169 2°54.765 3.9 360 21.7 101390 90
2008-07-31 09:05:14 51°18.169 2°54.765 3.9 359 21.7 101390 90
2008-07-31 09:05:20 51°18.169 2°54.765 4.2 359 21.7 101390 90
2008-07-31 09:05:25 51°18.169 2°54.765 4.1 -999 21.7 101390 90
2008-07-31 09:05:29 51°18.169 2°54.765 4.2 360 21.7 101390 90
2008-07-31 09:05:35 51°18.169 2°54.766 3.7 360 21.7 101390 90
2008-07-31 09:05:40 51°18.169 2°54.766 4.1 359 21.7 101390 90
2008-07-31 09:05:45 51°18.169 2°54.766 3.9 359 21.7 101390 90
2008-07-31 09:05:50 51°18.169 2°54.766 4.1 358 21.7 101390 90
2008-07-31 09:05:54 51°18.169 2°54.766 3.9 359 21.7 101390 90
2008-07-31 09:06:00 51°18.169 2°54.766 4.1 359 21.7 101390 90
2008-07-31 09:06:05 51°18.169 2°54.766 4.1 359 21.7 101390 90
2008-07-31 09:06:10 51°18.169 2°54.766 4.1 359 21.7 101390 90
2008-07-31 09:06:14 51°18.169 2°54.766 3.8 358 21.7 101390 90
2008-07-31 09:06:20 51°18.169 2°54.766 3.9 358 21.7 101390 90
2008-07-31 09:06:25 51°18.17 2°54.767 4.1 358 21.7 101390 90
2008-07-31 09:06:30 51°18.17 2°54.767 4 358 21.7 101390 90
2008-07-31 09:06:34 51°18.17 2°54.767 4.1 358 21.7 101390 90
2008-07-31 09:06:40 51°18.171 2°54.768 4.2 359 21.7 101390 90
2008-07-31 09:06:45 51°18.171 2°54.768 4.1 359 21.7 101390 90
2008-07-31 09:06:50 51°18.172 2°54.769 4.2 359 21.7 101390 90
2008-07-31 09:06:55 51°18.173 2°54.77 4.2 359 21.7 101390 90
2008-07-31 09:07:00 51°18.173 2°54.77 4.4 360 21.7 101390 90
2008-07-31 09:07:05 51°18.174 2°54.771 4.2 360 21.7 101390 90
2008-07-31 09:07:10 51°18.175 2°54.771 4.4 1 21.7 101390 90
2008-07-31 09:07:14 51°18.175 2°54.772 4.4 1 21.7 101380 90
2008-07-31 09:07:20 51°18.176 2°54.773 4.3 2 21.7 101380 90
2008-07-31 09:07:25 51°18.177 2°54.774 4.3 1 21.7 101390 90
2008-07-31 09:07:30 51°18.178 2°54.774 4.4 -999 21.7 101390 90
2008-07-31 09:07:35 51°18.179 2°54.775 4.4 2 21.7 101390 90
2008-07-31 09:07:40 51°18.18 2°54.776 4.1 3 21.7 101390 90
2008-07-31 09:07:45 51°18.181 2°54.777 4.4 4 21.7 101390 90
2008-07-31 09:07:50 51°18.181 2°54.779 4.9 1 21.7 101390 90
2008-07-31 09:07:55 51°18.182 2°54.78 5.1 359 21.7 101390 90
2008-07-31 09:08:00 51°18.183 2°54.781 5.1 355 21.7 101390 90
2008-07-31 09:08:05 51°18.184 2°54.783 5.4 346 21.7 101390 90
2008-07-31 09:08:10 51°18.185 2°54.784 3.2 351 21.7 101390 90
2008-07-31 09:08:14 51°18.186 2°54.785 3.9 352 21.7 101390 90
2008-07-31 09:08:20 51°18.187 2°54.787 3.8 353 21.7 101390 90
2008-07-31 09:08:25 51°18.188 2°54.788 3.9 352 21.7 101390 90
2008-07-31 09:08:29 51°18.188 2°54.789 4.5 352 21.7 101390 90
2008-07-31 09:08:35 51°18.189 2°54.791 4.3 353 21.8 101390 90
2008-07-31 09:08:40 51°18.19 2°54.792 4.3 352 21.8 101390 90
2008-07-31 09:08:45 51°18.191 2°54.794 4.3 351 21.7 101390 90
2008-07-31 09:08:50 51°18.192 2°54.795 4.5 354 21.7 101390 90
2008-07-31 09:08:54 51°18.193 2°54.797 4.3 354 21.7 101390 90
2008-07-31 09:09:00 51°18.194 2°54.798 4 353 21.7 101390 90
2008-07-31 09:09:05 51°18.195 2°54.8 4.2 353 21.7 101390 90
2008-07-31 09:09:10 51°18.196 2°54.801 3.9 353 21.7 101390 90
2008-07-31 09:09:15 51°18.197 2°54.802 4.1 354 21.7 101390 90
2008-07-31 09:09:20 51°18.198 2°54.804 3.8 353 21.7 101390 90
2008-07-31 09:09:25 51°18.199 2°54.805 4.1 354 21.8 101390 90
2008-07-31 09:09:30 51°18.2 2°54.806 4.1 354 21.8 101390 90
2008-07-31 09:09:35 51°18.201 2°54.807 3.9 353 21.8 101390 90
2008-07-31 09:09:40 51°18.201 2°54.809 3.8 355 21.8 101390 90
2008-07-31 09:09:45 51°18.202 2°54.81 4.3 355 21.7 101390 90
2008-07-31 09:09:50 51°18.203 2°54.811 4.2 355 21.7 101390 90
2008-07-31 09:09:55 51°18.204 2°54.812 4 355 21.7 101390 90
2008-07-31 09:10:00 51°18.204 2°54.813 4 356 21.7 101390 90
2008-07-31 09:10:05 51°18.205 2°54.814 4.2 357 21.7 101390 90
2008-07-31 09:10:09 51°18.206 2°54.815 3.9 357 21.7 101390 90
2008-07-31 09:10:15 51°18.207 2°54.817 4.3 358 21.7 101390 90
2008-07-31 09:10:20 51°18.207 2°54.818 4.4 358 21.7 101390 90
2008-07-31 09:10:25 51°18.208 2°54.819 4.3 358 21.7 101390 90
2008-07-31 09:10:30 51°18.209 2°54.819 4.3 358 21.7 101390 90
2008-07-31 09:10:34 51°18.21 2°54.82 4.5 359 21.7 101390 90
2008-07-31 09:10:40 51°18.211 2°54.821 4.2 360 21.7 101390 90
2008-07-31 09:10:45 51°18.212 2°54.822 4.4 1 21.7 101390 90
2008-07-31 09:10:50 51°18.213 2°54.823 4.1 1 21.7 101390 90
2008-07-31 09:10:54 51°18.213 2°54.824 3.9 2 21.7 101380 90
2008-07-31 09:11:00 51°18.214 2°54.824 4 2 21.7 101380 90
2008-07-31 09:11:05 51°18.215 2°54.825 4 1 21.7 101380 90
2008-07-31 09:11:10 51°18.216 2°54.826 3.9 1 21.7 101380 90
2008-07-31 09:11:15 51°18.218 2°54.827 4.3 1 21.7 101380 90
2008-07-31 09:11:20 51°18.22 2°54.827 3.6 4 21.7 101380 90
2008-07-31 09:11:25 51°18.222 2°54.828 3.6 5 21.7 101390 90
2008-07-31 09:11:30 51°18.224 2°54.828 3.9 7 21.7 101390 90
2008-07-31 09:11:34 51°18.225 2°54.828 4.3 8 21.7 101380 90
2008-07-31 09:11:40 51°18.228 2°54.828 4.5 9 21.7 101380 90
2008-07-31 09:11:45 51°18.231 2°54.827 4.1 10 21.7 101380 90
2008-07-31 09:11:50 51°18.234 2°54.825 4.3 12 21.7 101380 90
2008-07-31 09:11:55 51°18.237 2°54.824 3.9 12 21.7 101380 90
2008-07-31 09:12:00 51°18.241 2°54.822 4.3 9 21.7 101380 90
2008-07-31 09:12:05 51°18.244 2°54.82 3.9 7 21.7 101380 90
2008-07-31 09:12:09 51°18.247 2°54.819 3.4 6 21.7 101380 90
2008-07-31 09:12:15 51°18.252 2°54.817 3.7 4 21.7 101380 90
2008-07-31 09:12:20 51°18.256 2°54.816 3.7 3 21.7 101380 90
2008-07-31 09:12:25 51°18.261 2°54.814 3.8 1 21.7 101380 90
2008-07-31 09:12:30 51°18.266 2°54.812 4.5 1 21.7 101380 90
2008-07-31 09:12:35 51°18.272 2°54.81 4.3 358 21.7 101380 90
2008-07-31 09:12:40 51°18.279 2°54.807 4.9 358 21.7 101380 90
2008-07-31 09:12:45 51°18.286 2°54.805 4.5 357 21.7 101380 90
2008-07-31 09:12:50 51°18.294 2°54.801 5 356 21.7 101380 90
2008-07-31 09:12:55 51°18.302 2°54.798 5.2 356 21.7 101380 90
2008-07-31 09:13:00 51°18.31 2°54.795 4.9 354 21.7 101380 90
2008-07-31 09:13:05 51°18.318 2°54.791 5.4 354 21.7 101380 90
2008-07-31 09:13:10 51°18.327 2°54.787 5.6 353 21.7 101380 90
2008-07-31 09:13:14 51°18.334 2°54.784 5.3 354 21.7 101380 90
2008-07-31 09:13:20 51°18.345 2°54.779 5.1 353 21.7 101380 90
2008-07-31 09:13:25 51°18.354 2°54.774 5.6 353 21.7 101380 90
2008-07-31 09:13:30 51°18.364 2°54.769 5.5 352 21.7 101380 90
2008-07-31 09:13:35 51°18.373 2°54.765 6.2 352 21.7 101380 90
2008-07-31 09:13:40 51°18.383 2°54.76 5.4 352 21.7 101380 90
2008-07-31 09:13:45 51°18.393 2°54.757 5.6 351 21.7 101380 90
2008-07-31 09:13:50 51°18.403 2°54.753 5.5 350 21.7 101380 90
2008-07-31 09:13:54 51°18.411 2°54.75 6.2 350 21.7 101380 90
2008-07-31 09:14:00 51°18.423 2°54.746 5.6 352 21.7 101380 90
2008-07-31 09:14:05 51°18.433 2°54.742 6.2 352 21.7 101380 90
2008-07-31 09:14:10 51°18.444 2°54.739 5.7 352 21.7 101380 90
2008-07-31 09:14:15 51°18.454 2°54.735 6.3 352 21.7 101380 90
2008-07-31 09:14:20 51°18.464 2°54.731 5.6 353 21.7 101380 90
2008-07-31 09:14:25 51°18.474 2°54.726 5.6 353 21.7 101380 90
2008-07-31 09:14:30 51°18.485 2°54.722 5.7 351 21.7 101380 90
2008-07-31 09:14:35 51°18.495 2°54.718 6.3 353 21.7 101380 90
2008-07-31 09:14:40 51°18.505 2°54.714 5.4 354 21.7 101380 90
2008-07-31 09:14:45 51°18.514 2°54.71 6 355 21.7 101380 90
2008-07-31 09:14:50 51°18.522 2°54.707 5.2 356 21.7 101380 90
2008-07-31 09:14:55 51°18.531 2°54.704 5.1 356 21.6 101380 90
2008-07-31 09:15:00 51°18.538 2°54.701 5.3 356 21.6 101380 90
2008-07-31 09:15:05 51°18.546 2°54.699 4.9 355 21.6 101380 90
2008-07-31 09:15:09 51°18.551 2°54.697 5.1 353 21.6 101380 90
2008-07-31 09:15:14 51°18.558 2°54.696 4.6 356 21.6 101380 90
2008-07-31 09:15:20 51°18.565 2°54.694 4.7 358 21.6 101380 90
2008-07-31 09:15:25 51°18.571 2°54.692 4.7 358 21.6 101380 90
2008-07-31 09:15:30 51°18.576 2°54.69 4.7 360 21.6 101380 90
2008-07-31 09:15:35 51°18.582 2°54.688 5.1 -999 21.7 101380 90
2008-07-31 09:15:40 51°18.587 2°54.686 5 -999 21.7 101380 90
2008-07-31 09:15:45 51°18.592 2°54.684 4.8 360 21.7 101380 90
2008-07-31 09:15:50 51°18.597 2°54.683 4.7 -999 21.7 101380 90
2008-07-31 09:15:54 51°18.6 2°54.681 5.3 360 21.6 101380 90
2008-07-31 09:16:00 51°18.606 2°54.679 4.7 359 21.6 101380 90
2008-07-31 09:16:05 51°18.61 2°54.678 5.3 359 21.6 101380 90
2008-07-31 09:16:10 51°18.614 2°54.676 5.1 -999 21.6 101380 90
2008-07-31 09:16:15 51°18.618 2°54.675 5.2 1 21.6 101380 90
2008-07-31 09:16:20 51°18.622 2°54.674 5.1 1 21.6 101380 90
2008-07-31 09:16:25 51°18.626 2°54.672 4.9 -999 21.6 101380 90
2008-07-31 09:16:30 51°18.63 2°54.671 5 1 21.6 101380 90
2008-07-31 09:16:35 51°18.633 2°54.67 5.2 2 21.6 101380 90
2008-07-31 09:16:40 51°18.637 2°54.669 5.1 1 21.6 101380 90
2008-07-31 09:16:45 51°18.641 2°54.667 5.2 2 21.6 101380 90
2008-07-31 09:16:50 51°18.644 2°54.666 5 1 21.6 101380 90
2008-07-31 09:16:55 51°18.647 2°54.665 5.1 1 21.6 101380 90
2008-07-31 09:17:00 51°18.651 2°54.664 4.5 2 21.6 101380 90
2008-07-31 09:17:05 51°18.654 2°54.663 4.9 2 21.6 101380 90
2008-07-31 09:17:09 51°18.656 2°54.662 4.5 2 21.6 101380 90
2008-07-31 09:17:15 51°18.66 2°54.661 4.7 -999 21.6 101380 90
2008-07-31 09:17:20 51°18.663 2°54.66 4.8 1 21.6 101380 90
2008-07-31 09:17:25 51°18.666 2°54.659 4.5 2 21.6 101380 90
2008-07-31 09:17:30 51°18.669 2°54.658 4.3 2 21.6 101380 90
2008-07-31 09:17:34 51°18.671 2°54.658 4.8 3 21.6 101380 90
2008-07-31 09:17:40 51°18.675 2°54.656 4.2 4 21.6 101380 90
2008-07-31 09:17:45 51°18.677 2°54.656 4.4 4 21.6 101380 90
2008-07-31 09:17:50 51°18.68 2°54.654 4.6 4 21.6 101380 90
2008-07-31 09:17:54 51°18.682 2°54.654 4.6 3 21.6 101380 90
2008-07-31 09:18:00 51°18.685 2°54.652 4.6 5 21.6 101380 90
2008-07-31 09:18:05 51°18.688 2°54.651 4.7 5 21.6 101380 91
2008-07-31 09:18:10 51°18.69 2°54.65 4.8 5 21.6 101380 91
2008-07-31 09:18:14 51°18.692 2°54.649 4.8 5 21.6 101380 91
2008-07-31 09:18:20 51°18.695 2°54.648 4.3 5 21.6 101380 91
2008-07-31 09:18:25 51°18.697 2°54.647 4.1 5 21.6 101380 90
2008-07-31 09:18:30 51°18.7 2°54.646 4.5 5 21.6 101380 90
2008-07-31 09:18:34 51°18.702 2°54.645 4.2 5 21.6 101380 91
2008-07-31 09:18:40 51°18.705 2°54.644 4.5 6 21.6 101380 91
2008-07-31 09:18:45 51°18.707 2°54.643 4.5 4 21.6 101380 91
2008-07-31 09:18:50 51°18.709 2°54.642 4.7 5 21.6 101380 91
2008-07-31 09:18:55 51°18.711 2°54.641 4.1 5 21.6 101380 91
2008-07-31 09:19:00 51°18.714 2°54.64 4.3 4 21.6 101380 91
2008-07-31 09:19:05 51°18.716 2°54.639 4.5 5 21.6 101380 91
2008-07-31 09:19:10 51°18.718 2°54.639 4.3 5 21.6 101380 91
2008-07-31 09:19:15 51°18.72 2°54.638 4.2 6 21.6 101380 91
2008-07-31 09:19:20 51°18.722 2°54.637 3.9 5 21.6 101380 91
2008-07-31 09:19:25 51°18.724 2°54.636 4.5 5 21.6 101370 91
2008-07-31 09:19:30 51°18.726 2°54.635 4.1 5 21.6 101370 91
2008-07-31 09:19:35 51°18.729 2°54.634 4.1 5 21.5 101380 91
2008-07-31 09:19:40 51°18.731 2°54.633 4.3 4 21.5 101380 91
2008-07-31 09:19:45 51°18.732 2°54.632 4.2 5 21.5 101370 91
2008-07-31 09:19:50 51°18.735 2°54.631 3.9 4 21.5 101370 91
2008-07-31 09:19:54 51°18.736 2°54.63 4.7 4 21.5 101370 91
2008-07-31 09:20:00 51°18.738 2°54.629 4.4 3 21.5 101370 91
2008-07-31 09:20:05 51°18.74 2°54.627 4.6 3 21.5 101370 91
2008-07-31 09:20:10 51°18.742 2°54.626 4.1 4 21.5 101370 91